Hourly Data Report for February 14, 2005

TORONTO CITY
ONTARIO

43°40'00.000" N
79°24'00.000" W
112.50 m
6158355
71508
XTO

Download Data

Hourly Data (February 2005)
Hourly Data Report for February 14, 2005
TIME
LST
Temp Definition
°C
Dew Point Definition
°C
Rel Hum Definition
%
Precip. Amount Definition
mm

Wind Dir Definition
10's deg

Wind Spd Definition
km/h
Visibility Definition
km
Stn Press Definition
kPa
Hmdx Definition


Wind Chill Definition


Weather Definition


00:00 -1.8 -5.0 79   LegendMM LegendMM   100.78     LegendNANA
01:00 -1.4 -5.5 74   LegendMM LegendMM   100.61     LegendNANA
02:00 -1.0 -4.1 79   LegendMM LegendMM   100.47     LegendNANA
03:00 -0.3 -3.6 78   LegendMM LegendMM   100.32     LegendNANA
04:00 0.1 -3.3 78   LegendMM LegendMM   100.26     LegendNANA
05:00 0.3 -3.3 77   LegendMM LegendMM   100.11     LegendNANA
06:00 0.3 -3.1 78   LegendMM LegendMM   99.99     LegendNANA
07:00 0.5 -2.3 81   LegendMM LegendMM   99.87     LegendNANA
08:00 1.0 -1.4 84   LegendMM LegendMM   99.78     LegendNANA
09:00 1.0 -0.7 88   LegendMM LegendMM   99.68     LegendNANA
10:00 1.6 0.0 89   LegendMM LegendMM   99.58     LegendNANA
11:00 1.9 0.8 92   LegendMM LegendMM   99.50     LegendNANA
12:00 2.5 1.8 95   LegendMM LegendMM   99.42     LegendNANA
13:00 2.8 2.3 97   LegendMM LegendMM   99.28     LegendNANA
14:00 3.5 3.1 97   LegendMM LegendMM   99.17     LegendNANA
15:00 4.0 3.7 98   LegendMM LegendMM   99.09     LegendNANA
16:00 3.9 3.6 98   LegendMM LegendMM   99.00     LegendNANA
17:00 3.9 3.7 99   LegendMM LegendMM   98.94     LegendNANA
18:00 4.1 3.9 99   LegendMM LegendMM   98.88     LegendNANA
19:00 4.7 4.3 97   LegendMM LegendMM   98.88     LegendNANA
20:00 4.2 3.7 97   LegendMM LegendMM   98.87     LegendNANA
21:00 4.6 4.1 97   LegendMM LegendMM   98.87     LegendNANA
22:00 5.1 4.3 95   LegendMM LegendMM   99.00     LegendNANA
23:00 4.3 1.9 84   LegendMM LegendMM   99.20     LegendNANA

Notes on Data Quality.

Legend

  • E = Estimated
  • M = Missing
  • NA = Not Available*
  • [empty] = Indicates an unobserved value
Date modified: